Year,Month,Day,Hour,Minute,Value (Times are PST for temperature in C)
2007,09,21,00,00,10.60
2007,09,21,00,01,10.60
2007,09,21,00,02,10.60
2007,09,21,00,03,10.60
2007,09,21,00,04,10.60
2007,09,21,00,05,10.60
2007,09,21,00,06,10.60
2007,09,21,00,07,10.60
2007,09,21,00,08,10.60
2007,09,21,00,09,10.60
2007,09,21,00,10,10.60
2007,09,21,00,11,10.50
2007,09,21,00,12,10.50
2007,09,21,00,13,10.40
2007,09,21,00,14,10.40
2007,09,21,00,15,10.40
2007,09,21,00,16,10.40
2007,09,21,00,17,10.40
2007,09,21,00,18,10.40
2007,09,21,00,19,10.40
2007,09,21,00,20,10.40
2007,09,21,00,21,10.40
2007,09,21,00,22,10.40
2007,09,21,00,23,10.40
2007,09,21,00,24,10.30
2007,09,21,00,25,10.30
2007,09,21,00,26,10.30
2007,09,21,00,27,10.30
2007,09,21,00,28,10.40
2007,09,21,00,29,10.40
2007,09,21,00,30,10.40
2007,09,21,00,31,10.40
2007,09,21,00,32,10.40
2007,09,21,00,33,10.30
2007,09,21,00,34,10.30
2007,09,21,00,35,10.30
2007,09,21,00,36,10.20
2007,09,21,00,37,10.20
2007,09,21,00,38,10.10
2007,09,21,00,39,10.10
2007,09,21,00,40,10.10
2007,09,21,00,41,10.10
2007,09,21,00,42,10.10
2007,09,21,00,43,10.10
2007,09,21,00,44,10.20
2007,09,21,00,45,10.20
2007,09,21,00,46,10.20
2007,09,21,00,47,10.20
2007,09,21,00,48,10.20
2007,09,21,00,49,10.10
2007,09,21,00,50,10.10
2007,09,21,00,51,10.10
2007,09,21,00,52,10.10
2007,09,21,00,53,10.10
2007,09,21,00,54,10.10
2007,09,21,00,55,10.10
2007,09,21,00,56,10.10
2007,09,21,00,57,10.10
2007,09,21,00,58,10.10
2007,09,21,00,59,10.10
2007,09,21,01,00,10.10
2007,09,21,01,01,10.10
2007,09,21,01,02,10.10
2007,09,21,01,03,10.10
2007,09,21,01,04,10.10
2007,09,21,01,05,10.10
2007,09,21,01,06,10.10
2007,09,21,01,07,10.10
2007,09,21,01,08,10.10
2007,09,21,01,09,10.10
2007,09,21,01,10,10.10
2007,09,21,01,11,10.10
2007,09,21,01,12,10.10
2007,09,21,01,13,10.10
2007,09,21,01,14,10.10
2007,09,21,01,15,10.10
2007,09,21,01,16,10.10
2007,09,21,01,17,10.10
2007,09,21,01,18,10.10
2007,09,21,01,19,10.10
2007,09,21,01,20,10.10
2007,09,21,01,21,10.10
2007,09,21,01,22,10.10
2007,09,21,01,23,10.10
2007,09,21,01,24,10.10
2007,09,21,01,25,10.10
2007,09,21,01,26,10.10
2007,09,21,01,27,10.10
2007,09,21,01,28,10.10
2007,09,21,01,29,10.10
2007,09,21,01,30,10.10
2007,09,21,01,31,10.10
2007,09,21,01,32,10.10
2007,09,21,01,33,10.10
2007,09,21,01,34,10.10
2007,09,21,01,35,10.10
2007,09,21,01,36,10.10
2007,09,21,01,37,10.10
2007,09,21,01,38,10.10
2007,09,21,01,39,10.10
2007,09,21,01,40,10.10
2007,09,21,01,41,10.10
2007,09,21,01,42,10.10
2007,09,21,01,43,10.10
2007,09,21,01,44,10.10
2007,09,21,01,45,10.10
2007,09,21,01,46,10.10
2007,09,21,01,47,10.10
2007,09,21,01,48,10.10
2007,09,21,01,49,10.10
2007,09,21,01,50,10.10
2007,09,21,01,51,10.10
2007,09,21,01,52,10.10
2007,09,21,01,53,10.10
2007,09,21,01,54,9.90
2007,09,21,01,55,9.90
2007,09,21,01,56,9.90
2007,09,21,01,57,9.90
2007,09,21,01,58,9.90
2007,09,21,01,59,9.90
2007,09,21,02,00,9.90
2007,09,21,02,01,9.90
2007,09,21,02,02,9.80
2007,09,21,02,03,9.80
2007,09,21,02,04,9.80
2007,09,21,02,05,9.80
2007,09,21,02,06,9.80
2007,09,21,02,07,9.80
2007,09,21,02,08,9.80
2007,09,21,02,09,9.80
2007,09,21,02,10,9.80
2007,09,21,02,11,9.80
2007,09,21,02,12,9.80
2007,09,21,02,13,9.90
2007,09,21,02,14,9.90
2007,09,21,02,15,9.90
2007,09,21,02,16,9.90
2007,09,21,02,17,9.90
2007,09,21,02,18,9.90
2007,09,21,02,19,9.90
2007,09,21,02,20,9.90
2007,09,21,02,21,9.90
2007,09,21,02,22,9.90
2007,09,21,02,23,9.90
2007,09,21,02,24,9.90
2007,09,21,02,25,9.90
2007,09,21,02,26,9.90
2007,09,21,02,27,9.90
2007,09,21,02,28,9.90
2007,09,21,02,29,9.90
2007,09,21,02,30,9.90
2007,09,21,02,31,9.90
2007,09,21,02,32,9.90
2007,09,21,02,33,9.90
2007,09,21,02,34,9.90
2007,09,21,02,35,9.90
2007,09,21,02,36,9.90
2007,09,21,02,37,9.90
2007,09,21,02,38,9.90
2007,09,21,02,39,9.90
2007,09,21,02,40,9.90
2007,09,21,02,41,9.90
2007,09,21,02,42,9.90
2007,09,21,02,43,9.90
2007,09,21,02,44,9.90
2007,09,21,02,45,9.90
2007,09,21,02,46,9.90
2007,09,21,02,47,9.90
2007,09,21,02,48,9.90
2007,09,21,02,49,9.90
2007,09,21,02,50,9.90
2007,09,21,02,51,9.90
2007,09,21,02,52,9.90
2007,09,21,02,53,10.00
2007,09,21,02,54,10.10
2007,09,21,02,55,10.10
2007,09,21,02,56,10.10
2007,09,21,02,57,10.10
2007,09,21,02,58,10.10
2007,09,21,02,59,10.10
2007,09,21,03,00,10.10
2007,09,21,03,01,10.10
2007,09,21,03,02,10.10
2007,09,21,03,03,10.10
2007,09,21,03,04,10.10
2007,09,21,03,05,10.10
2007,09,21,03,06,10.10
2007,09,21,03,07,10.10
2007,09,21,03,08,10.10
2007,09,21,03,09,10.10
2007,09,21,03,10,10.10
2007,09,21,03,11,10.10
2007,09,21,03,12,10.10
2007,09,21,03,13,10.10
2007,09,21,03,14,10.10
2007,09,21,03,15,10.10
2007,09,21,03,16,10.10
2007,09,21,03,17,10.10
2007,09,21,03,18,10.10
2007,09,21,03,19,10.10
2007,09,21,03,20,10.10
2007,09,21,03,21,10.10
2007,09,21,03,22,10.10
2007,09,21,03,23,10.10
2007,09,21,03,24,10.00
2007,09,21,03,25,9.90
2007,09,21,03,26,9.90
2007,09,21,03,27,9.90
2007,09,21,03,28,9.90
2007,09,21,03,29,9.90
2007,09,21,03,30,9.90
2007,09,21,03,31,9.90
2007,09,21,03,32,9.90
2007,09,21,03,33,9.90
2007,09,21,03,34,10.00
2007,09,21,03,35,10.10
2007,09,21,03,36,10.10
2007,09,21,03,37,10.00
2007,09,21,03,38,9.90
2007,09,21,03,39,9.90
2007,09,21,03,40,9.90
2007,09,21,03,41,9.80
2007,09,21,03,42,9.70
2007,09,21,03,43,9.70
2007,09,21,03,44,9.70
2007,09,21,03,45,9.60
2007,09,21,03,46,9.50
2007,09,21,03,47,9.50
2007,09,21,03,48,9.40
2007,09,21,03,49,9.40
2007,09,21,03,50,9.40
2007,09,21,03,51,9.30
2007,09,21,03,52,9.30
2007,09,21,03,53,9.30
2007,09,21,03,54,9.30
2007,09,21,03,55,9.30
2007,09,21,03,56,9.30
2007,09,21,03,57,9.30
2007,09,21,03,58,9.30
2007,09,21,03,59,9.30
2007,09,21,04,00,9.30
2007,09,21,04,01,9.30
2007,09,21,04,02,9.30
2007,09,21,04,03,9.30
2007,09,21,04,04,9.30
2007,09,21,04,05,9.30
2007,09,21,04,06,9.30
2007,09,21,04,07,9.30
2007,09,21,04,08,9.20
2007,09,21,04,09,9.20
2007,09,21,04,10,9.20
2007,09,21,04,11,9.20
2007,09,21,04,12,9.20
2007,09,21,04,13,9.20
2007,09,21,04,14,9.20
2007,09,21,04,15,9.20
2007,09,21,04,16,9.20
2007,09,21,04,17,9.20
2007,09,21,04,18,9.20
2007,09,21,04,19,9.20
2007,09,21,04,20,9.20
2007,09,21,04,21,9.20
2007,09,21,04,22,9.20
2007,09,21,04,23,9.20
2007,09,21,04,24,9.20
2007,09,21,04,25,9.30
2007,09,21,04,26,9.30
2007,09,21,04,27,9.30
2007,09,21,04,28,9.30
2007,09,21,04,29,9.30
2007,09,21,04,30,9.30
2007,09,21,04,31,9.30
2007,09,21,04,32,9.30
2007,09,21,04,33,9.30
2007,09,21,04,34,9.30
2007,09,21,04,35,9.30
2007,09,21,04,36,9.20
2007,09,21,04,37,9.20
2007,09,21,04,38,9.30
2007,09,21,04,39,9.40
2007,09,21,04,40,9.40
2007,09,21,04,41,9.40
2007,09,21,04,42,9.50
2007,09,21,04,43,9.50
2007,09,21,04,44,9.60
2007,09,21,04,45,9.70
2007,09,21,04,46,9.70
2007,09,21,04,47,9.70
2007,09,21,04,48,9.70
2007,09,21,04,49,9.70
2007,09,21,04,50,9.70
2007,09,21,04,51,9.70
2007,09,21,04,52,9.70
2007,09,21,04,53,9.70
2007,09,21,04,54,9.80
2007,09,21,04,55,9.80
2007,09,21,04,56,9.80
2007,09,21,04,57,9.80
2007,09,21,04,58,9.70
2007,09,21,04,59,9.70
2007,09,21,05,00,9.70
2007,09,21,05,01,9.70
2007,09,21,05,02,9.70
2007,09,21,05,03,9.60
2007,09,21,05,04,9.60
2007,09,21,05,05,9.60
2007,09,21,05,06,9.60
2007,09,21,05,07,9.60
2007,09,21,05,08,9.60
2007,09,21,05,09,9.60
2007,09,21,05,10,9.60
2007,09,21,05,11,9.60
2007,09,21,05,12,9.60
2007,09,21,05,13,9.60
2007,09,21,05,14,9.60
2007,09,21,05,15,9.60
2007,09,21,05,16,9.50
2007,09,21,05,17,9.50
2007,09,21,05,18,9.50
2007,09,21,05,19,9.50
2007,09,21,05,20,9.50
2007,09,21,05,21,9.60
2007,09,21,05,22,9.60
2007,09,21,05,23,9.60
2007,09,21,05,24,9.60
2007,09,21,05,25,9.60
2007,09,21,05,26,9.70
2007,09,21,05,27,9.70
2007,09,21,05,28,9.70
2007,09,21,05,29,9.70
2007,09,21,05,30,9.70
2007,09,21,05,31,9.80
2007,09,21,05,32,9.80
2007,09,21,05,33,9.70
2007,09,21,05,34,9.70
2007,09,21,05,35,9.70
2007,09,21,05,36,9.60
2007,09,21,05,37,9.60
2007,09,21,05,38,9.60
2007,09,21,05,39,9.60
2007,09,21,05,40,9.60
2007,09,21,05,41,9.70
2007,09,21,05,42,9.70
2007,09,21,05,43,9.70
2007,09,21,05,44,9.70
2007,09,21,05,45,9.70
2007,09,21,05,46,9.70
2007,09,21,05,47,9.70
2007,09,21,05,48,9.70
2007,09,21,05,49,9.70
2007,09,21,05,50,9.70
2007,09,21,05,51,9.70
2007,09,21,05,52,9.70
2007,09,21,05,53,9.70
2007,09,21,05,54,9.70
2007,09,21,05,55,9.70
2007,09,21,05,56,9.70
2007,09,21,05,57,9.70
2007,09,21,05,58,9.70
2007,09,21,05,59,9.70
2007,09,21,06,00,9.70
2007,09,21,06,01,9.80
2007,09,21,06,02,9.80
2007,09,21,06,03,9.80
2007,09,21,06,04,9.80
2007,09,21,06,05,9.90
2007,09,21,06,06,9.90
2007,09,21,06,07,9.90
2007,09,21,06,08,9.90
2007,09,21,06,09,9.90
2007,09,21,06,10,9.90
2007,09,21,06,11,9.90
2007,09,21,06,12,9.90
2007,09,21,06,13,9.90
2007,09,21,06,14,9.90
2007,09,21,06,15,9.90
2007,09,21,06,16,9.90
2007,09,21,06,17,9.90
2007,09,21,06,18,9.90
2007,09,21,06,19,9.90
2007,09,21,06,20,9.90
2007,09,21,06,21,9.90
2007,09,21,06,22,9.90
2007,09,21,06,23,9.90
2007,09,21,06,24,9.90
2007,09,21,06,25,9.90
2007,09,21,06,26,9.90
2007,09,21,06,27,9.80
2007,09,21,06,28,9.80
2007,09,21,06,29,9.80
2007,09,21,06,30,9.70
2007,09,21,06,31,9.70
2007,09,21,06,32,9.70
2007,09,21,06,33,9.50
2007,09,21,06,34,9.30
2007,09,21,06,35,9.20
2007,09,21,06,36,9.10
2007,09,21,06,37,9.10
2007,09,21,06,38,9.00
2007,09,21,06,39,9.00
2007,09,21,06,40,8.90
2007,09,21,06,41,8.90
2007,09,21,06,42,8.90
2007,09,21,06,43,8.90
2007,09,21,06,44,8.80
2007,09,21,06,45,8.80
2007,09,21,06,46,8.80
2007,09,21,06,47,8.80
2007,09,21,06,48,8.80
2007,09,21,06,49,8.80
2007,09,21,06,50,8.80
2007,09,21,06,51,8.80
2007,09,21,06,52,8.80
2007,09,21,06,53,8.80
2007,09,21,06,54,8.80
2007,09,21,06,55,8.80
2007,09,21,06,56,8.80
2007,09,21,06,57,8.80
2007,09,21,06,58,8.80
2007,09,21,06,59,8.80
2007,09,21,07,00,8.80
2007,09,21,07,01,8.90
2007,09,21,07,02,8.90
2007,09,21,07,03,9.00
2007,09,21,07,04,9.00
2007,09,21,07,05,9.10
2007,09,21,07,06,9.10
2007,09,21,07,07,9.10
2007,09,21,07,08,9.10
2007,09,21,07,09,9.00
2007,09,21,07,10,9.00
2007,09,21,07,11,9.00
2007,09,21,07,12,9.00
2007,09,21,07,13,9.00
2007,09,21,07,14,8.90
2007,09,21,07,15,8.90
2007,09,21,07,16,8.90
2007,09,21,07,17,8.90
2007,09,21,07,18,8.90
2007,09,21,07,19,9.00
2007,09,21,07,20,9.00
2007,09,21,07,21,9.10
2007,09,21,07,22,9.10
2007,09,21,07,23,9.20
2007,09,21,07,24,9.20
2007,09,21,07,25,9.20
2007,09,21,07,26,9.30
2007,09,21,07,27,9.30
2007,09,21,07,28,9.40
2007,09,21,07,29,9.40
2007,09,21,07,30,9.50
2007,09,21,07,31,9.50
2007,09,21,07,32,9.60
2007,09,21,07,33,9.60
2007,09,21,07,34,9.70
2007,09,21,07,35,9.70
2007,09,21,07,36,9.70
2007,09,21,07,37,9.80
2007,09,21,07,38,9.90
2007,09,21,07,39,9.90
2007,09,21,07,40,9.90
2007,09,21,07,41,9.90
2007,09,21,07,42,9.90
2007,09,21,07,43,9.90
2007,09,21,07,44,9.90
2007,09,21,07,45,10.00
2007,09,21,07,46,10.10
2007,09,21,07,47,10.10
2007,09,21,07,48,10.10
2007,09,21,07,49,10.10
2007,09,21,07,50,10.10
2007,09,21,07,51,10.10
2007,09,21,07,52,10.10
2007,09,21,07,53,10.20
2007,09,21,07,54,10.20
2007,09,21,07,55,10.20
2007,09,21,07,56,10.20
2007,09,21,07,57,10.20
2007,09,21,07,58,10.20
2007,09,21,07,59,10.20
2007,09,21,08,00,10.20
2007,09,21,08,01,10.20
2007,09,21,08,02,10.30
2007,09,21,08,03,10.20
2007,09,21,08,04,10.20
2007,09,21,08,05,10.20
2007,09,21,08,06,10.20
2007,09,21,08,07,10.20
2007,09,21,08,08,10.20
2007,09,21,08,09,10.20
2007,09,21,08,10,10.20
2007,09,21,08,11,10.30
2007,09,21,08,12,10.30
2007,09,21,08,13,10.30
2007,09,21,08,14,10.40
2007,09,21,08,15,10.40
2007,09,21,08,16,10.40
2007,09,21,08,17,10.40
2007,09,21,08,18,10.40
2007,09,21,08,19,10.40
2007,09,21,08,20,10.40
2007,09,21,08,21,10.50
2007,09,21,08,22,10.60
2007,09,21,08,23,10.60
2007,09,21,08,24,10.60
2007,09,21,08,25,10.60
2007,09,21,08,26,10.50
2007,09,21,08,27,10.60
2007,09,21,08,28,10.40
2007,09,21,08,29,10.40
2007,09,21,08,30,10.40
2007,09,21,08,31,10.40
2007,09,21,08,32,10.40
2007,09,21,08,33,10.40
2007,09,21,08,34,10.40
2007,09,21,08,35,10.40
2007,09,21,08,36,10.40
2007,09,21,08,37,10.40
2007,09,21,08,38,10.40
2007,09,21,08,39,10.40
2007,09,21,08,40,10.40
2007,09,21,08,41,10.40
2007,09,21,08,42,10.40
2007,09,21,08,43,10.40
2007,09,21,08,44,10.40
2007,09,21,08,45,10.40
2007,09,21,08,46,10.40
2007,09,21,08,47,10.40
2007,09,21,08,48,10.40
2007,09,21,08,49,10.40
2007,09,21,08,50,10.40
2007,09,21,08,51,10.40
2007,09,21,08,52,10.40
2007,09,21,08,53,10.40
2007,09,21,08,54,10.40
2007,09,21,08,55,10.40
2007,09,21,08,56,10.40
2007,09,21,08,57,10.50
2007,09,21,08,58,10.60
2007,09,21,08,59,10.60
2007,09,21,09,00,10.60
2007,09,21,09,01,10.60
2007,09,21,09,02,10.60
2007,09,21,09,03,10.70
2007,09,21,09,04,10.70
2007,09,21,09,05,10.70
2007,09,21,09,06,10.70
2007,09,21,09,07,10.80
2007,09,21,09,08,10.80
2007,09,21,09,09,10.80
2007,09,21,09,10,10.80
2007,09,21,09,11,10.80
2007,09,21,09,12,10.80
2007,09,21,09,13,10.80
2007,09,21,09,14,10.70
2007,09,21,09,15,10.70
2007,09,21,09,16,10.80
2007,09,21,09,17,10.80
2007,09,21,09,18,10.80
2007,09,21,09,19,10.80
2007,09,21,09,20,10.80
2007,09,21,09,21,10.80
2007,09,21,09,22,10.80
2007,09,21,09,23,10.90
2007,09,21,09,24,10.90
2007,09,21,09,25,10.90
2007,09,21,09,26,10.90
2007,09,21,09,27,10.90
2007,09,21,09,28,10.90
2007,09,21,09,29,10.90
2007,09,21,09,30,10.90
2007,09,21,09,31,10.90
2007,09,21,09,32,10.90
2007,09,21,09,33,10.90
2007,09,21,09,34,10.90
2007,09,21,09,35,11.00
2007,09,21,09,36,11.10
2007,09,21,09,37,10.90
2007,09,21,09,38,10.90
2007,09,21,09,39,10.90
2007,09,21,09,40,11.00
2007,09,21,09,41,11.10
2007,09,21,09,42,11.00
2007,09,21,09,43,10.90
2007,09,21,09,44,10.90
2007,09,21,09,45,10.90
2007,09,21,09,46,11.10
2007,09,21,09,47,11.10
2007,09,21,09,48,11.10
2007,09,21,09,49,11.10
2007,09,21,09,50,11.10
2007,09,21,09,51,10.90
2007,09,21,09,52,10.90
2007,09,21,09,53,10.90
2007,09,21,09,54,10.90
2007,09,21,09,55,10.90
2007,09,21,09,56,10.90
2007,09,21,09,57,10.90
2007,09,21,09,58,10.90
2007,09,21,09,59,10.80
2007,09,21,10,00,10.70
2007,09,21,10,01,10.80
2007,09,21,10,02,10.80
2007,09,21,10,03,10.90
2007,09,21,10,04,10.90
2007,09,21,10,05,10.90
2007,09,21,10,06,10.90
2007,09,21,10,07,10.80
2007,09,21,10,08,10.80
2007,09,21,10,09,10.80
2007,09,21,10,10,10.80
2007,09,21,10,11,10.80
2007,09,21,10,12,10.80
2007,09,21,10,13,10.70
2007,09,21,10,14,10.70
2007,09,21,10,15,10.70
2007,09,21,10,16,10.60
2007,09,21,10,17,10.70
2007,09,21,10,18,10.70
2007,09,21,10,19,10.70
2007,09,21,10,20,10.70
2007,09,21,10,21,10.80
2007,09,21,10,22,10.80
2007,09,21,10,23,10.70
2007,09,21,10,24,10.60
2007,09,21,10,25,10.60
2007,09,21,10,26,10.60
2007,09,21,10,27,10.60
2007,09,21,10,28,10.60
2007,09,21,10,29,10.60
2007,09,21,10,30,10.60
2007,09,21,10,31,10.60
2007,09,21,10,32,10.60
2007,09,21,10,33,10.70
2007,09,21,10,34,10.70
2007,09,21,10,35,10.70
2007,09,21,10,36,10.70
2007,09,21,10,37,10.80
2007,09,21,10,38,10.80
2007,09,21,10,39,10.80
2007,09,21,10,40,10.80
2007,09,21,10,41,10.80
2007,09,21,10,42,10.90
2007,09,21,10,43,10.90
2007,09,21,10,44,10.90
2007,09,21,10,45,10.90
2007,09,21,10,46,10.90
2007,09,21,10,47,10.90
2007,09,21,10,48,11.00
2007,09,21,10,49,11.10
2007,09,21,10,50,11.20
2007,09,21,10,51,11.20
2007,09,21,10,52,11.20
2007,09,21,10,53,11.30
2007,09,21,10,54,11.30
2007,09,21,10,55,11.40
2007,09,21,10,56,11.40
2007,09,21,10,57,11.40
2007,09,21,10,58,11.40
2007,09,21,10,59,11.40
2007,09,21,11,00,11.40
2007,09,21,11,01,11.40
2007,09,21,11,02,11.30
2007,09,21,11,03,11.30
2007,09,21,11,04,11.40
2007,09,21,11,05,11.40
2007,09,21,11,06,11.40
2007,09,21,11,07,11.40
2007,09,21,11,08,11.40
2007,09,21,11,09,11.40
2007,09,21,11,10,11.50
2007,09,21,11,11,11.60
2007,09,21,11,12,11.80
2007,09,21,11,13,11.80
2007,09,21,11,14,12.00
2007,09,21,11,15,12.00
2007,09,21,11,16,12.10
2007,09,21,11,17,12.10
2007,09,21,11,18,12.00
2007,09,21,11,19,12.00
2007,09,21,11,20,11.90
2007,09,21,11,21,11.80
2007,09,21,11,22,11.80
2007,09,21,11,23,11.80
2007,09,21,11,24,11.80
2007,09,21,11,25,11.80
2007,09,21,11,26,11.80
2007,09,21,11,27,11.80
2007,09,21,11,28,11.80
2007,09,21,11,29,11.80
2007,09,21,11,30,11.80
2007,09,21,11,31,11.80
2007,09,21,11,32,11.80
2007,09,21,11,33,11.80
2007,09,21,11,34,11.70
2007,09,21,11,35,11.70
2007,09,21,11,36,11.80
2007,09,21,11,37,11.80
2007,09,21,11,38,11.90
2007,09,21,11,39,12.10
2007,09,21,11,40,12.20
2007,09,21,11,41,12.20
2007,09,21,11,42,12.30
2007,09,21,11,43,12.40
2007,09,21,11,44,12.50
2007,09,21,11,45,12.60
2007,09,21,11,46,12.60
2007,09,21,11,47,12.60
2007,09,21,11,48,12.60
2007,09,21,11,49,12.60
2007,09,21,11,50,12.60
2007,09,21,11,51,12.50
2007,09,21,11,52,12.50
2007,09,21,11,53,12.50
2007,09,21,11,54,12.50
2007,09,21,11,55,12.50
2007,09,21,11,56,12.50
2007,09,21,11,57,12.50
2007,09,21,11,58,12.40
2007,09,21,11,59,12.40
2007,09,21,12,00,12.40
2007,09,21,12,01,12.40
2007,09,21,12,02,12.40
2007,09,21,12,03,12.50
2007,09,21,12,04,12.50
2007,09,21,12,05,12.40
2007,09,21,12,06,12.30
2007,09,21,12,07,12.30
2007,09,21,12,08,12.20
2007,09,21,12,09,12.20
2007,09,21,12,10,12.30
2007,09,21,12,11,12.30
2007,09,21,12,12,12.20
2007,09,21,12,13,12.10
2007,09,21,12,14,12.10
2007,09,21,12,15,12.10
2007,09,21,12,16,12.00
2007,09,21,12,17,11.90
2007,09,21,12,18,11.90
2007,09,21,12,19,11.90
2007,09,21,12,20,11.80
2007,09,21,12,21,11.80
2007,09,21,12,22,11.80
2007,09,21,12,23,11.80
2007,09,21,12,24,11.70
2007,09,21,12,25,11.70
2007,09,21,12,26,11.70
2007,09,21,12,27,11.60
2007,09,21,12,28,11.60
2007,09,21,12,29,11.60
2007,09,21,12,30,11.70
2007,09,21,12,31,11.70
2007,09,21,12,32,11.80
2007,09,21,12,33,11.80
2007,09,21,12,34,11.90
2007,09,21,12,35,11.90
2007,09,21,12,36,12.00
2007,09,21,12,37,12.00
2007,09,21,12,38,11.90
2007,09,21,12,39,12.00
2007,09,21,12,40,12.10
2007,09,21,12,41,12.10
2007,09,21,12,42,12.00
2007,09,21,12,43,12.00
2007,09,21,12,44,12.00
2007,09,21,12,45,12.00
2007,09,21,12,46,12.10
2007,09,21,12,47,12.10
2007,09,21,12,48,12.10
2007,09,21,12,49,12.00
2007,09,21,12,50,11.90
2007,09,21,12,51,11.90
2007,09,21,12,52,11.80
2007,09,21,12,53,11.80
2007,09,21,12,54,11.80
2007,09,21,12,55,11.80
2007,09,21,12,56,11.80
2007,09,21,12,57,11.80
2007,09,21,12,58,11.80
2007,09,21,12,59,11.80
2007,09,21,13,00,11.70
2007,09,21,13,01,11.60
2007,09,21,13,02,11.60
2007,09,21,13,03,11.60
2007,09,21,13,04,11.60
2007,09,21,13,05,11.60
2007,09,21,13,06,11.60
2007,09,21,13,07,11.60
2007,09,21,13,08,11.50
2007,09,21,13,09,11.40
2007,09,21,13,10,11.40
2007,09,21,13,11,11.40
2007,09,21,13,12,11.50
2007,09,21,13,13,11.60
2007,09,21,13,14,11.60
2007,09,21,13,15,11.70
2007,09,21,13,16,11.70
2007,09,21,13,17,11.80
2007,09,21,13,18,11.70
2007,09,21,13,19,11.70
2007,09,21,13,20,11.60
2007,09,21,13,21,11.60
2007,09,21,13,22,11.60
2007,09,21,13,23,11.60
2007,09,21,13,24,11.60
2007,09,21,13,25,11.60
2007,09,21,13,26,11.60
2007,09,21,13,27,11.60
2007,09,21,13,28,11.70
2007,09,21,13,29,11.70
2007,09,21,13,30,11.70
2007,09,21,13,31,11.80
2007,09,21,13,32,11.80
2007,09,21,13,33,11.70
2007,09,21,13,34,11.60
2007,09,21,13,35,11.60
2007,09,21,13,36,11.60
2007,09,21,13,37,11.60
2007,09,21,13,38,11.60
2007,09,21,13,39,11.70
2007,09,21,13,40,11.80
2007,09,21,13,41,11.70
2007,09,21,13,42,11.70
2007,09,21,13,43,11.60
2007,09,21,13,44,11.60
2007,09,21,13,45,11.60
2007,09,21,13,46,11.60
2007,09,21,13,47,11.60
2007,09,21,13,48,11.60
2007,09,21,13,49,11.60
2007,09,21,13,50,11.70
2007,09,21,13,51,11.70
2007,09,21,13,52,11.70
2007,09,21,13,53,11.70
2007,09,21,13,54,11.70
2007,09,21,13,55,11.70
2007,09,21,13,56,11.70
2007,09,21,13,57,11.60
2007,09,21,13,58,11.60
2007,09,21,13,59,11.60
2007,09,21,14,00,11.60
2007,09,21,14,01,11.70
2007,09,21,14,02,11.70
2007,09,21,14,03,11.60
2007,09,21,14,04,11.70
2007,09,21,14,05,11.70
2007,09,21,14,06,11.70
2007,09,21,14,07,11.70
2007,09,21,14,08,11.70
2007,09,21,14,09,11.80
2007,09,21,14,10,11.80
2007,09,21,14,11,11.80
2007,09,21,14,12,11.80
2007,09,21,14,13,11.80
2007,09,21,14,14,11.90
2007,09,21,14,15,11.90
2007,09,21,14,16,12.00
2007,09,21,14,17,12.00
2007,09,21,14,18,12.10
2007,09,21,14,19,12.10
2007,09,21,14,20,12.10
2007,09,21,14,21,12.10
2007,09,21,14,22,12.10
2007,09,21,14,23,12.10
2007,09,21,14,24,12.10
2007,09,21,14,25,12.10
2007,09,21,14,26,12.10
2007,09,21,14,27,12.20
2007,09,21,14,28,12.20
2007,09,21,14,29,12.20
2007,09,21,14,30,12.20
2007,09,21,14,31,12.20
2007,09,21,14,32,12.20
2007,09,21,14,33,12.20
2007,09,21,14,34,12.30
2007,09,21,14,35,12.30
2007,09,21,14,36,12.20
2007,09,21,14,37,12.20
2007,09,21,14,38,12.20
2007,09,21,14,39,12.20
2007,09,21,14,40,12.20
2007,09,21,14,41,12.20
2007,09,21,14,42,12.20
2007,09,21,14,43,12.20
2007,09,21,14,44,12.30
2007,09,21,14,45,12.30
2007,09,21,14,46,12.30
2007,09,21,14,47,12.30
2007,09,21,14,48,12.30
2007,09,21,14,49,12.30
2007,09,21,14,50,12.20
2007,09,21,14,51,12.30
2007,09,21,14,52,12.30
2007,09,21,14,53,12.30
2007,09,21,14,54,12.30
2007,09,21,14,55,12.30
2007,09,21,14,56,12.40
2007,09,21,14,57,12.40
2007,09,21,14,58,12.40
2007,09,21,14,59,12.40
2007,09,21,15,00,12.40
2007,09,21,15,01,12.40
2007,09,21,15,02,12.40
2007,09,21,15,03,12.40
2007,09,21,15,04,12.40
2007,09,21,15,05,12.40
2007,09,21,15,06,12.40
2007,09,21,15,07,12.40
2007,09,21,15,08,12.40
2007,09,21,15,09,12.40
2007,09,21,15,10,12.40
2007,09,21,15,11,12.30
2007,09,21,15,12,12.30
2007,09,21,15,13,12.30
2007,09,21,15,14,12.30
2007,09,21,15,15,12.20
2007,09,21,15,16,12.20
2007,09,21,15,17,12.20
2007,09,21,15,18,12.20
2007,09,21,15,19,12.20
2007,09,21,15,20,12.20
2007,09,21,15,21,12.30
2007,09,21,15,22,12.30
2007,09,21,15,23,12.30
2007,09,21,15,24,12.30
2007,09,21,15,25,12.30
2007,09,21,15,26,12.30
2007,09,21,15,27,12.30
2007,09,21,15,28,12.30
2007,09,21,15,29,12.40
2007,09,21,15,30,12.40
2007,09,21,15,31,12.40
2007,09,21,15,32,12.50
2007,09,21,15,33,12.50
2007,09,21,15,34,12.60
2007,09,21,15,35,12.60
2007,09,21,15,36,12.60
2007,09,21,15,37,12.70
2007,09,21,15,38,12.70
2007,09,21,15,39,12.70
2007,09,21,15,40,12.70
2007,09,21,15,41,12.70
2007,09,21,15,42,12.70
2007,09,21,15,43,12.70
2007,09,21,15,44,12.70
2007,09,21,15,45,12.80
2007,09,21,15,46,12.80
2007,09,21,15,47,12.80
2007,09,21,15,48,12.80
2007,09,21,15,49,12.80
2007,09,21,15,50,12.80
2007,09,21,15,51,12.80
2007,09,21,15,52,12.80
2007,09,21,15,53,12.80
2007,09,21,15,54,12.80
2007,09,21,15,55,12.80
2007,09,21,15,56,12.80
2007,09,21,15,57,12.80
2007,09,21,15,58,12.70
2007,09,21,15,59,12.70
2007,09,21,16,00,12.80
2007,09,21,16,01,12.80
2007,09,21,16,02,12.80
2007,09,21,16,03,12.80
2007,09,21,16,04,12.80
2007,09,21,16,05,12.80
2007,09,21,16,06,12.80
2007,09,21,16,07,12.80
2007,09,21,16,08,12.70
2007,09,21,16,09,12.80
2007,09,21,16,10,12.80
2007,09,21,16,11,12.80
2007,09,21,16,12,12.80
2007,09,21,16,13,12.80
2007,09,21,16,14,12.80
2007,09,21,16,15,12.80
2007,09,21,16,16,12.80
2007,09,21,16,17,12.80
2007,09,21,16,18,12.80
2007,09,21,16,19,12.80
2007,09,21,16,20,12.80
2007,09,21,16,21,12.80
2007,09,21,16,22,12.80
2007,09,21,16,23,12.80
2007,09,21,16,24,12.80
2007,09,21,16,25,12.80
2007,09,21,16,26,12.80
2007,09,21,16,27,12.80
2007,09,21,16,28,12.80
2007,09,21,16,29,12.80
2007,09,21,16,30,12.80
2007,09,21,16,31,12.80
2007,09,21,16,32,12.70
2007,09,21,16,33,12.70
2007,09,21,16,34,12.60
2007,09,21,16,35,12.60
2007,09,21,16,36,12.60
2007,09,21,16,37,12.50
2007,09,21,16,38,12.50
2007,09,21,16,39,12.50
2007,09,21,16,40,12.40
2007,09,21,16,41,12.40
2007,09,21,16,42,12.40
2007,09,21,16,43,12.30
2007,09,21,16,44,12.30
2007,09,21,16,45,12.30
2007,09,21,16,46,12.30
2007,09,21,16,47,12.30
2007,09,21,16,48,12.30
2007,09,21,16,49,12.30
2007,09,21,16,50,12.30
2007,09,21,16,51,12.30
2007,09,21,16,52,12.20
2007,09,21,16,53,12.20
2007,09,21,16,54,12.20
2007,09,21,16,55,12.20
2007,09,21,16,56,12.20
2007,09,21,16,57,12.20
2007,09,21,16,58,12.20
2007,09,21,16,59,12.20
2007,09,21,17,00,12.20
2007,09,21,17,01,12.20
2007,09,21,17,02,12.30
2007,09,21,17,03,12.30
2007,09,21,17,04,12.30
2007,09,21,17,05,12.30
2007,09,21,17,06,12.30
2007,09,21,17,07,12.20
2007,09,21,17,08,12.20
2007,09,21,17,09,12.20
2007,09,21,17,10,12.20
2007,09,21,17,11,12.20
2007,09,21,17,12,12.20
2007,09,21,17,13,12.20
2007,09,21,17,14,12.20
2007,09,21,17,15,12.20
2007,09,21,17,16,12.20
2007,09,21,17,17,12.20
2007,09,21,17,18,12.10
2007,09,21,17,19,12.10
2007,09,21,17,20,12.00
2007,09,21,17,21,12.00
2007,09,21,17,22,12.00
2007,09,21,17,23,12.00
2007,09,21,17,24,11.90
2007,09,21,17,25,11.90
2007,09,21,17,26,11.90
2007,09,21,17,27,11.90
2007,09,21,17,28,11.90
2007,09,21,17,29,12.00
2007,09,21,17,30,12.00
2007,09,21,17,31,12.00
2007,09,21,17,32,12.00
2007,09,21,17,33,12.00